Regional Weather Roundup
Issued by NWS

Home | Current Version | Previous Version | Text Only | Print | Product List | Glossary Off
Versions: 1 2 3 4 5 6 7 8 9 10 11 12 13 14 15 16 17 18 19 20 21 22 23 24 25 26 27 28 29 30 31 32 33 34 35 36 37 38 39 40 41 42 43 44 45 46 47 48 49 50

642
ASUS44 KLIX 220701
RWRLA
LOUISIANA WEATHER ROUNDUP
NATIONAL WEATHER SERVICE NEW ORLEANS LA
100 AM CST SAT NOV 22 2014

NOTE: "FAIR" INDICATES FEW OR NO CLOUDS BELOW 12,000 FEET WITH NO
      SIGNIFICANT WEATHER AND/OR OBSTRUCTIONS TO VISIBILITY.
      SKY/WX - SKY CONDITION AND SIGNIFICANT WEATHER.
      TMP - AIR TEMPERATURE.    DP   - DEWPOINT TEMPERATURE.
      RH  - RELATIVE HUMIDITY.  PRES - PRESSURE.
      HX  - HEAT INDEX.         WCI  - WIND CHILL INDEX.

*  THESE STATIONS ARE NOT NWS OR FAA STATIONS AND ARE NOT UNDER
   NWS QUALITY CONTROL.

LAZ040-048-061>063-065-066-069-220800-
SOUTHEAST LOUISIANA

CITY           SKY/WX    TMP DP  RH WIND       PRES   REMARKS
N.O. AUDUBON   NOT AVBL
N.O. INTL ARPT CLEAR     55  51  86 E6        30.23F
N.O. LAKEFRONT CLEAR     56  52  86 E7        30.24F
N.O. DOWNTOWN* FAIR      61  48  63 NE7       30.24F
SLIDELL        CLEAR     47  45  93 NE5       30.24F
BATON ROUGE    CLEAR     51  49  92 N3        30.24F
BOOTHVILLE     CLEAR     61  56  83 E6        30.22F
BELLE CHASSE   CLEAR     54  47  77 E8        30.23F
BOGALUSA*        N/A     45  42  89 CALM      30.28F
NEW ROADS*     NOT AVBL
GONZALES*      NOT AVBL
HAMMOND*       NOT AVBL
HOUMA*         NOT AVBL
PORT FOURCHON* MOSUNNY   64  59  82 E10       30.23F

$$

LAZ041-044-053-054-220800-
SOUTHWEST LOUISIANA

CITY           SKY/WX    TMP DP  RH WIND       PRES   REMARKS
LAKE CHARLES   CLEAR     57  50  77 E12       30.19F
LAFAYETTE      CLEAR     56  50  80 E3        30.23F
PATTERSON      CLEAR     54  50  87 E7        30.23F
SALT POINT       N/A     56  50  80 CALM      30.20F
NEW IBERIA     CLEAR     55  50  83 E7        30.22F
CHENAULT AIRPK CLEAR     58  50  76 E9        30.21S

$$

LAZ027-028-220800-
CENTRAL LOUISIANA

CITY           SKY/WX    TMP DP  RH WIND       PRES   REMARKS
FORT POLK      NOT AVBL
ALEXANDRIA INT CLOUDY    60  51  72 SE13      30.22F
ALEXANDRIA     CLOUDY    60  51  72 SE5       30.24F

$$

LAZ001-002-220800-
NORTHWEST LOUISIANA

CITY           SKY/WX    TMP DP  RH WIND       PRES   REMARKS
SHREVEPORT     RAIN      56  53  90 SE5       30.20F
BARKSDALE AFB  NOT AVBL
DTN SHREVEPORT LGT RAIN  56  50  80 E7        30.21S

$$

LAZ014-016-220800-
NORTHEAST LOUISIANA

CITY           SKY/WX    TMP DP  RH WIND       PRES   REMARKS
MONROE         CLOUDY    60  50  69 SE7       30.26S
TALLULAH       MOCLDY    55  46  71 S6        30.27F

$$




USA.gov is the U.S. government's official web portal to all federal, state and local government web resources and services.